When you browse on this site, cookies collect data to enhance your experience and personalize the content and advertising you see.
Visit our Privacy Policy to learn more. By continuing to use the site, you agree to this use of cookies and data.
EN

Hourly Weather Sidi Bu-l-Abbas

Today, 10 July, Friday

Time Temperature Precipitation Wind Pressure Humidity
00:00 +26°C° 0 mm 2 mps 720 mmHg 61%
01:00 +25°C° 0 mm 2 mps 719 mmHg 66%
02:00 +24°C° 0 mm 2 mps 719 mmHg 72%
03:00 +23°C° 0 mm 2 mps 719 mmHg 77%
04:00 +23°C° 0 mm 2 mps 719 mmHg 78%
05:00 +23°C° 0 mm 1 mps 719 mmHg 78%
06:00 +23°C° 0 mm 1 mps 719 mmHg 79%
07:00 +25°C° 0 mm 1 mps 719 mmHg 69%
08:00 +27°C° 0 mm 2 mps 719 mmHg 59%
09:00 +29°C° 0 mm 2 mps 720 mmHg 49%
10:00 +30°C° 0 mm 3 mps 720 mmHg 45%
11:00 +33°C° 0 mm 3 mps 720 mmHg 40%
12:00 +35°C° 0 mm 4 mps 720 mmHg 35%
13:00 +35°C° 0 mm 4 mps 719 mmHg 35%
14:00 +35°C° 0 mm 5 mps 719 mmHg 36%
15:00 +35°C° 0 mm 6 mps 718 mmHg 36%
16:00 +34°C° 0 mm 5 mps 718 mmHg 39%
17:00 +33°C° 0 mm 5 mps 718 mmHg 42%
18:00 +32°C° 0 mm 4 mps 718 mmHg 45%
19:00 +30°C° 0 mm 3 mps 718 mmHg 50%
20:00 +28°C° 0 mm 2 mps 719 mmHg 56%
21:00 +25°C° 0 mm 0 mps 719 mmHg 61%
22:00 +24°C° 0 mm 0 mps 719 mmHg 63%
23:00 +24°C° 0 mm 0 mps 719 mmHg 66%

Tomorrow, 11 July, Saturday

Time Temperature Precipitation Wind Pressure Humidity
00:00 +25°C° 0 mm 1 mps 719 mmHg 68%
01:00 +25°C° 0 mm 1 mps 718 mmHg 70%
02:00 +24°C° 0 mm 1 mps 718 mmHg 71%
03:00 +24°C° 0 mm 1 mps 718 mmHg 73%
04:00 +24°C° 0 mm 1 mps 718 mmHg 74%
05:00 +24°C° 0 mm 1 mps 718 mmHg 75%
06:00 +24°C° 0 mm 1 mps 718 mmHg 76%
07:00 +26°C° 0 mm 2 mps 719 mmHg 65%
08:00 +28°C° 0 mm 2 mps 719 mmHg 55%
09:00 +30°C° 0 mm 2 mps 720 mmHg 45%
10:00 +33°C° 0 mm 3 mps 720 mmHg 39%
11:00 +35°C° 0 mm 4 mps 720 mmHg 34%
12:00 +37°C° 0 mm 5 mps 720 mmHg 29%
13:00 +37°C° 0 mm 5 mps 720 mmHg 28%
14:00 +39°C° 0 mm 6 mps 720 mmHg 28%
15:00 +39°C° 0 mm 7 mps 719 mmHg 28%
16:00 +38°C° 0 mm 6 mps 719 mmHg 31%
17:00 +35°C° 0 mm 5 mps 719 mmHg 34%
18:00 +34°C° 0 mm 5 mps 719 mmHg 36%
19:00 +32°C° 0 mm 4 mps 719 mmHg 42%
20:00 +29°C° 0 mm 3 mps 719 mmHg 47%
21:00 +28°C° 0 mm 2 mps 719 mmHg 52%
22:00 +27°C° 0 mm 2 mps 719 mmHg 53%
23:00 +27°C° 0 mm 2 mps 719 mmHg 55%

Day after tomorrow, 12 July, Sunday

Time Temperature Precipitation Wind Pressure Humidity
00:00 +27°C° 0 mm 2 mps 719 mmHg 56%
01:00 +26°C° 0 mm 2 mps 719 mmHg 60%
02:00 +25°C° 0 mm 2 mps 719 mmHg 65%
03:00 +25°C° 0 mm 2 mps 719 mmHg 69%
04:00 +25°C° 0 mm 2 mps 719 mmHg 66%
05:00 +26°C° 0 mm 2 mps 719 mmHg 64%
06:00 +26°C° 0 mm 1 mps 720 mmHg 61%
07:00 +29°C° 0 mm 2 mps 720 mmHg 51%
08:00 +31°C° 0 mm 2 mps 720 mmHg 41%
09:00 +35°C° 0 mm 3 mps 721 mmHg 32%
10:00 +37°C° 0 mm 3 mps 721 mmHg 26%
11:00 +39°C° 0 mm 3 mps 721 mmHg 21%
12:00 +42°C° 0 mm 3 mps 721 mmHg 16%
13:00 +43°C° 0 mm 4 mps 720 mmHg 15%
14:00 +43°C° 0 mm 4 mps 720 mmHg 14%
15:00 +45°C° 0 mm 5 mps 720 mmHg 12%
16:00 +41°C° 0 mm 6 mps 720 mmHg 23%
17:00 +38°C° 0 mm 7 mps 719 mmHg 34%
18:00 +33°C° 0 mm 8 mps 719 mmHg 44%
19:00 +32°C° 0 mm 6 mps 720 mmHg 48%
20:00 +30°C° 0 mm 4 mps 720 mmHg 51%
21:00 +28°C° 0 mm 2 mps 720 mmHg 55%
22:00 +28°C° 0 mm 1 mps 720 mmHg 53%
23:00 +28°C° 0 mm 1 mps 720 mmHg 51%

13 July, Monday

Time Temperature Precipitation Wind Pressure Humidity
00:00 +28°C° 0 mm 1 mps 720 mmHg 49%
01:00 +28°C° 0 mm 1 mps 719 mmHg 52%
02:00 +27°C° 0 mm 1 mps 719 mmHg 54%
03:00 +26°C° 0 mm 2 mps 719 mmHg 56%
04:00 +26°C° 0 mm 1 mps 719 mmHg 60%
05:00 +26°C° 0 mm 1 mps 719 mmHg 64%
06:00 +25°C° 0 mm 1 mps 719 mmHg 68%
07:00 +27°C° 0 mm 1 mps 720 mmHg 62%
08:00 +28°C° 0 mm 2 mps 720 mmHg 56%
09:00 +30°C° 0 mm 2 mps 720 mmHg 50%
10:00 +33°C° 0 mm 3 mps 720 mmHg 45%
11:00 +34°C° 0 mm 4 mps 720 mmHg 40%
12:00 +36°C° 0 mm 5 mps 720 mmHg 35%
13:00 +36°C° 0 mm 6 mps 720 mmHg 36%
14:00 +35°C° 0 mm 6 mps 720 mmHg 36%
15:00 +35°C° 0 mm 6 mps 719 mmHg 37%
16:00 +34°C° 0 mm 5 mps 719 mmHg 40%
17:00 +33°C° 0 mm 4 mps 719 mmHg 43%
18:00 +32°C° 0 mm 4 mps 719 mmHg 46%
19:00 +29°C° 0 mm 3 mps 719 mmHg 53%
20:00 +27°C° 0 mm 2 mps 720 mmHg 60%
21:00 +26°C° 0 mm 1 mps 720 mmHg 68%
22:00 +25°C° 0 mm 1 mps 720 mmHg 70%
23:00 +25°C° 0 mm 1 mps 720 mmHg 73%

14 July, Tuesday

Time Temperature Precipitation Wind Pressure Humidity
00:00 +24°C° 0 mm 1 mps 720 mmHg 75%
01:00 +23°C° 0 mm 1 mps 719 mmHg 79%
02:00 +23°C° 0 mm 1 mps 719 mmHg 83%
03:00 +20°C° 0 mm 0 mps 719 mmHg 86%
04:00 +20°C° 0 mm 0 mps 719 mmHg 84%
05:00 +21°C° 0 mm 0 mps 719 mmHg 82%
06:00 +21°C° 0 mm 0 mps 720 mmHg 81%
07:00 +25°C° 0 mm 1 mps 720 mmHg 68%
08:00 +28°C° 0 mm 2 mps 720 mmHg 56%
09:00 +30°C° 0 mm 2 mps 720 mmHg 43%
10:00 +33°C° 0 mm 3 mps 720 mmHg 37%
11:00 +35°C° 0 mm 4 mps 720 mmHg 31%
12:00 +37°C° 0 mm 4 mps 720 mmHg 25%
13:00 +37°C° 0 mm 5 mps 719 mmHg 24%
14:00 +39°C° 0 mm 6 mps 719 mmHg 24%
15:00 +39°C° 0 mm 6 mps 718 mmHg 23%
16:00 +38°C° 0 mm 6 mps 718 mmHg 26%
17:00 +36°C° 0 mm 6 mps 718 mmHg 29%
18:00 +34°C° 0 mm 6 mps 717 mmHg 32%
19:00 +33°C° 0 mm 5 mps 718 mmHg 36%
20:00 +30°C° 0 mm 3 mps 718 mmHg 41%
21:00 +28°C° 0 mm 2 mps 718 mmHg 45%
22:00 +28°C° 0 mm 2 mps 718 mmHg 45%
23:00 +27°C° 0 mm 1 mps 718 mmHg 46%

15 July, Wednesday

Time Temperature Precipitation Wind Pressure Humidity
00:00 +27°C° 0 mm 1 mps 718 mmHg 47%
01:00 +27°C° 0 mm 1 mps 718 mmHg 47%
02:00 +26°C° 0 mm 2 mps 717 mmHg 48%
03:00 +26°C° 0 mm 2 mps 717 mmHg 48%
04:00 +27°C° 0 mm 2 mps 717 mmHg 46%
05:00 +27°C° 0 mm 2 mps 717 mmHg 44%
06:00 +28°C° 0 mm 2 mps 718 mmHg 41%
07:00 +30°C° 0 mm 2 mps 718 mmHg 34%
08:00 +34°C° 0 mm 3 mps 719 mmHg 27%
09:00 +37°C° 0 mm 3 mps 719 mmHg 20%
10:00 +38°C° 0 mm 3 mps 719 mmHg 19%
11:00 +40°C° 0 mm 3 mps 719 mmHg 17%
12:00 +42°C° 0 mm 4 mps 719 mmHg 16%
13:00 +42°C° 0 mm 5 mps 719 mmHg 17%
14:00 +42°C° 0 mm 6 mps 719 mmHg 18%
15:00 +43°C° 0 mm 8 mps 719 mmHg 19%
16:00 +40°C° 0 mm 7 mps 718 mmHg 22%
17:00 +38°C° 0 mm 6 mps 718 mmHg 25%
18:00 +36°C° 0 mm 5 mps 718 mmHg 28%
19:00 +34°C° 0 mm 3 mps 719 mmHg 32%
20:00 +31°C° 0 mm 2 mps 719 mmHg 37%
21:00 +29°C° 0 mm 1 mps 720 mmHg 41%
22:00 +28°C° 0 mm 1 mps 720 mmHg 44%
23:00 +28°C° 0 mm 1 mps 720 mmHg 48%
Show more